Погода Ртищево

Погода Ртищево : погода сейчас, прогноз погоды и архив. Всё, что Вы хотите узнать о погоде Ртищево!

Хотите узнать прогноз погоды Ртищево? Тогда Вам сюда: Погода Ртищево

Поиск расширенной информации на нашем сайте:

Другие новости

Новости СМИ2

Главная страница сайта

Новости сайта

02.10.2013

Напоминаем, что на нашем новом сайте вы можете получить высокодетализированные прогнозы погоды по пунктам России, СНГ и мира (включающие важные для авиации метеовеличины, такие как направление и скорость ветра, видимость, явления погоды, количество и форма облачности, нижняя и верхняя граница облачности), а также ознакомиться с разнообразными материалами по авиационной метеорологии и подборкой полезных ссылок на эту тему.

Сайт Метеоцентр.Азия посвящён разработке технологий оптимизации авиаметеорологического обслуживания, включая проектирование и перспективное создание нескольких автоматизированных авиаметеорологических систем:
- система выпуска высокодетальных прогностических карт явлений погоды для нижнего воздушного пространства по России и ближнему зарубежью;
- система верификации прогнозов TAF (выпускаемых синоптиками официальных АМСГ РФ и ближнего зарубежья) и AUTOTAF (выпускаемых сайтом Метеоцентр.Азия) - выявление ошибок, онлайн-сопоставление с фактической погодой METAR, автоматическое внесение коррективов в прогнозы при резком отклонении фактической погоды от прогноза, подсчёт оправдываемости прогнозов по элементам и в целом;
- система обработки, анализа и отображения авиаметеорологической информации для применения провайдерами метеорологической информации.

Рекомендуем: Кадров смотреть онлайн бесплатно новые серии.

Погода Ртищево - сегодня

Время (UTC), дата Ветер
(°,м/с) 
Видим.   Явления Облачность Т
(°С)
Тd
(°С)
f(%) Тe
(°С)
Pmin
(гПа)
dP
(гПа)
Po
(мм)
O2
(г/м3)
Тmin Tmax R s Состояние
почвы
15 21.01.17 310 (СЗ) 4000 м  слаб. снег  10/0 средняя 
[As op]
-3.5 -4.3 94 -5  1005.7  -0.8  735  300    -3.4  0.7     
18 21.01.17 340 (С) 4{13}  4000 м  в посл. час снег  3/0 средняя 
[Ac trans]
-7.4 -10.7 77 -11  1008.7  2.4  736  306           
21 21.01.17 320 (СЗ) 4000 м    ясно 
-9 -11.3 83 -12  1011.6  2.7  738  309           
00 22.01.17 310 (СЗ) 4000 м    6/0 средняя 
[Ac trans]
-9.8 -11.5 87 -13  1013.4  1.6  740  310           
03 22.01.17 300 (СЗ) 4000 м    ясно 
-9.6 -11.6 85 -14  1015.3  1.9  741  311  -10.7    0.5  34  неравномерный
сухой снег
100% 
06 22.01.17 280 (З) 10 км    ясно 
-11.1 -13 86 -14  1016.6  1.2  742  313  -11.6         
09 22.01.17 280 (З) 4{10}  10 км    ясно 
-8.5 -12.3 74 -12  1017  0.6  742  310           
12 22.01.17 280 (З) 6-11{11}  10 км    1/0 верхняя 
[Ci fib]
-8.6 -12.3 75 -14  1016.4  0.6  742  310           
15 22.01.17 280 (З) 4{11}  4000 м    8/0 средняя 
[Ac trans]
-9.2 -11 87 -13  1015.5  -0.9  741  310    -8       
18 22.01.17 270 (З) 5-10{10}  4000 м    10/8 600 м кучево-дожд., средняя 
[Cb cap|Ac und]
-7.7 -9.6 86 -12  1014.1  -1.2  740  308           
21 22.01.17 270 (З) 4{10}  4000 м    10/8 600 м кучево-дожд., средняя 
[Cb cap|Ac und]
-6.7 -8.1 90 -10  1013.4  -0.6  740  306           
00 23.01.17 300 (СЗ) 4000 м  слаб. ливневой снег  10/8 600 м кучево-дожд., средняя 
[Cb cap|Ac As]
-4.9 -6.1 91 -7  1014.1  0.8  741  304           
03 23.01.17 330 (СЗ) 4000 м  {ливн. осадки}  8/0 средняя 
[Ac As]
-4.5 -7.2 81 -7  1016.2  2.1  742  305  -9.2    0.4  36  неравномерный
сухой снег
100% 
06 23.01.17 260 (З) 10 км    3/0 средняя 
[Ac trans]
-6.9 -9.6 81 -7  1017.8  1.3  743  308           
09 23.01.17 250 (З) 10 км    10/0 средняя 
[Ac und]
-4.4 -7.4 80 -4  1017.9  0.4  743  305           
12 23.01.17 230 (ЮЗ) 10 км  слаб. снег  10/10 600 м 
[Ns]
-3 -4 93 -4  1016.7  -1  743  303           
15 23.01.17 250 (З) 4000 м  дымка{снег}  10/10 300 м 
[St]
-0.9 -1.4 96 -2  1015.7  -0.8  742  300    -0.8  0.0     
18 23.01.17 240 (ЮЗ) 4000 м    10/10 600 м 
[Sc]
-1.7 -2.5 94 -4  1014.3  -1.4  741  301           
21 23.01.17 240 (ЮЗ) 4000 м    10/10 600 м 
[Sc]
-1.7 -2.7 93 -4  1012.8  -1.5  740  300           
00 24.01.17 270 (З) 5-10{12}  4000 м  слаб. снег  10/10 600 м 
[Ns]
-1.5 -2.2 95 -5  1011.3  -1.4  739  300           
03 24.01.17 270 (З) 5-10{10}  4000 м  {снег}  10/10 600 м 
[Sc]
-1.5 -2.8 91 -5  1010  -1.2  738  299  -1.7    0.0  34  неравномерный
сухой снег
100% 
06 24.01.17 260 (З) 3{11}  10 км  {снег}  10/10 600 м 
[Ns]
-2.1 -3 94 -4  1009.3  -0.7  737  300  -2.1         
09 24.01.17 250 (З) 10 км    10/10 300 м 
[St]
-3.3 -4.1 94 -6  1009.2  -0.3  737  301           
12 24.01.17 250 (З) 4{10}  10 км  {снег}  10/10 600 м 
[Ns]
-3.6 -4.6 93 -7  1008.9  -0.3  737  301           
15 24.01.17 250 (З) 4000 м  {морось} [диам. гололёда 1 мм]  10/10 300 м 
[St]
-4.1 -4.9 94 -6  1009.1  -0.3  737  302    -1.5  0.0     
Время (UTC), дата Ветер
(°,м/с) 
Видим.   Явления Облачность Т
(°С)
Тd
(°С)
f(%) Тe
(°С)
Pmin
(гПа)
dP
(гПа)
Po
(мм)
O2
(г/м3)
Тmin Tmax R s Состояние
почвы

Для получения пояснительной информации подведите курсор к названию столбца.

ПОГОДА Ртищево - архив

Всё, что Вы хотите узнать о погоде Ртищево - удобно и подробно!

Выберите нужную дату (начиная с 1 января 2015* года) и нажмите кнопку "Найти".
Будут отображены архивные сводки погоды по пункту Ртищево, начиная с указанной даты.


Отображать данные в формате CSV (для использования в таблицах Excel)


Внимание! Наш архив погоды предназначен исключительно для личного некоммерческого использования в познавательных целях. Если Вам необходимы официальные справки о состоянии погоды (для производственных, юридических, коммерческих и т.п. целей), обращайтесь в органы Росгидромета.

*Примечание: данная дата относится к архиву по метеостанциям СССР (Россия, СНГ, Балтия).
Архив по метеостанциям Зарубежной Европы и Азии (кроме Китая) хранится 10 дней, по другим регионам земного шара (Китай, Африка, Америка, Австралия, Океания) - 1 день.

Ртищево - район местоположения метеостанции


Название, широта, долгота, высота метеостанции:
Ртищево 52.2°ш. 43.8°д. 213 м над ур. моря [Российская Федерация]

Дополнительная информация

В oтличие oт бoльшинства пoгoдных сайтoв мы публикуем пoдрoбную метеoинфoрмацию в детальнoм прoфессиoнальнoм фoрмате.

Характеристики температуры и влажнoсти вoздуха измеряются на высoте 2 м в тени вдали oт зданий и деревьев.
Скoрoсть ветра измеряется на высoте 10 м (на урoвне рoста челoвека скoрoсть ветра ниже в 1.5-2 раза). Если метеoстанция нахoдится в гoрoде или в лесу, тo скoрoсть ветра занижена на 2-4 м/с пo сравнению с oткрытым местoм. Скoрoсть ветра над акватoриями крупных рек и oзёр, а также на вершинах хoлмoв на 2-5 м/с выше, чем в oбычных услoвиях.
Атмoсфернoе давление в разных тoчках местнoсти мoжет значительнo oтличаться oт давления на метеoстанции, в зависимoсти oт услoвий рельефа (при пoдъёме на 10 м давление пoнижается примернo на 1 мм рт.ст.).